Location: St. Louis
(38.6270°N, 90.1994°W)
Time: 08:02:39
(UTC-06:00)

deb Explorer IX - Pass Details

Date: 03 December 2021
Orbit: 544 x 1082 km, 38.8° (Epoch: 19 January)

Event Time Altitude Azimuth Distance (km) Brightness Sun altitude
Rises 14:47:33 0° 280° (W) 2,714 ? 16.4°
Reaches altitude 10° 14:49:53 10° 273° (W) 1,804 ? 16.1°
Maximum altitude 14:53:44 42° 202° (SSW) 787 ? 15.6°
Drops below altitude 10° 14:57:41 10° 131° (SE) 1,855 ? 15.1°
Sets 15:00:07 0° 124° (SE) 2,801 ? 14.7°
